Weather History for Homestead AFB, FL

Change the Weather History Date:

Wednesday, February 13, 2013

  Actual Average Record
Temperature  
Mean Temperature 75 °F -  
Max Temperature 82 °F 76 °F 86 °F (1935)
Min Temperature 68 °F 53 °F 39 °F (1955)
Cooling Degree Days 10    
Growing Degree Days 25 (Base 50)    
Moisture  
Dew Point 70 °F    
Average Humidity 92    
Maximum Humidity 100    
Minimum Humidity 66    
Precipitation  
Precipitation 0.00 in - - ()
Sea Level Pressure  
Sea Level Pressure 30.00 in    
Wind  
Wind Speed 4 mph (SSE)    
Max Wind Speed 16 mph    
Max Gust Speed 22 mph    
Visibility 6 miles    
Events      
Averages and records for this station are not official NWS values.
T = Trace of Precipitation, MM = Missing Value Source: NWS Daily Summary

Daily Weather History Graph

Daily Weather History Graph

Search for Another Location

Airport:

Trip Planner

Search our weather history database for the weather conditions in past years. The results will help you decide how hot, cold, wet, or windy it might be!

Date:

Astronomy

Feb. 13, 2013 Rise Set
Actual Time 6:57 AM EST 6:14 PM EST
Civil Twilight 6:34 AM EST 6:37 PM EST
Nautical Twilight 6:07 AM EST 7:04 PM EST
Astronomical Twilight 5:40 AM EST 7:31 PM EST
Moon 8:53 AM EST (2/13) 9:44 PM EST (2/13)
Length of Visible Light 12h 03m
Length of Day
11h 16m
Waxing Crescent, 13% of the Moon is Illuminated
Feb 13
Waxing Crescent
Feb 17
First Quarter
Feb 25
Full
Mar 4
Last Quarter
Mar 11
New

Hourly Weather History & Observations

Time (EST) Temp. Heat Index Dew Point Humidity Pressure Visibility Wind Dir Wind Speed Gust Speed Precip Events Conditions
12:48 AM 69.8 °F - 68.0 °F 94% 30.03 in 9.0 mi South 2.3 mph - N/A   Clear
12:58 AM 68.9 °F - 68.5 °F 99% 30.04 in 9.0 mi South 3.5 mph - N/A   Clear
1:13 AM 69.8 °F - 68.0 °F 94% 30.03 in 6.0 mi South 2.3 mph - N/A   Clear
1:18 AM 68.0 °F - 68.0 °F 100% 30.03 in 3.0 mi South 1.2 mph - N/A   Clear
1:23 AM 68.0 °F - 68.0 °F 100% 30.03 in 3.0 mi South 1.2 mph - N/A   Clear
1:43 AM 68.0 °F - 68.0 °F 100% 30.02 in 2.0 mi Calm Calm - N/A   Partly Cloudy
1:48 AM 69.8 °F - 68.0 °F 94% 30.02 in 1.2 mi Calm Calm - N/A   Partly Cloudy
1:58 AM 69.1 °F - 69.1 °F 100% 30.03 in 1.2 mi SE 1.2 mph - N/A   Partly Cloudy
2:13 AM 68.0 °F - 68.0 °F 100% 30.01 in 2.0 mi South 2.3 mph - N/A   Clear
2:18 AM 69.8 °F - 69.8 °F 100% 30.01 in 6.0 mi South 2.3 mph - N/A   Clear
2:53 AM 69.8 °F - 69.8 °F 100% 30.00 in 9.0 mi Calm Calm - N/A   Clear
2:58 AM 69.3 °F - 69.3 °F 100% 30.01 in 7.0 mi SSE 1.2 mph - N/A   Clear
3:08 AM 69.8 °F - 69.8 °F 100% 30.00 in 1.5 mi SSE 2.3 mph - N/A   Clear
3:23 AM 68.0 °F - 68.0 °F 100% 29.99 in 0.8 mi SE 3.5 mph - N/A   Clear
3:28 AM 68.0 °F - 68.0 °F 100% 29.99 in 1.0 mi SSE 4.6 mph - N/A   Clear
3:33 AM 68.0 °F - 68.0 °F 100% 29.99 in 1.8 mi SSE 4.6 mph - N/A   Clear
3:38 AM 68.0 °F - 68.0 °F 100% 29.99 in 5.0 mi SSE 4.6 mph - N/A   Clear
3:43 AM 68.0 °F - 68.0 °F 100% 29.99 in 5.0 mi SSE 4.6 mph - N/A   Clear
3:58 AM 68.9 °F - 68.9 °F 100% 29.99 in 8.0 mi SSE 5.8 mph - N/A   Clear
4:23 AM 69.8 °F - 69.8 °F 100% 29.98 in 10.0 mi SSE 4.6 mph - N/A   Clear
4:58 AM 69.8 °F - 69.8 °F 100% 30.00 in 10.0 mi SE 3.5 mph - N/A   Clear
5:13 AM 69.8 °F - 69.8 °F 100% 29.99 in 10.0 mi SE 2.3 mph - N/A   Clear
5:28 AM 69.8 °F - 69.8 °F 100% 30.00 in 2.5 mi SE 2.3 mph - N/A   Clear
5:33 AM 69.8 °F - 69.8 °F 100% 30.00 in 1.5 mi SE 2.3 mph - N/A   Clear
5:38 AM 69.8 °F - 69.8 °F 100% 30.00 in 2.5 mi SSE 2.3 mph - N/A   Clear
5:43 AM 69.8 °F - 69.8 °F 100% 30.00 in 1.2 mi SSE 2.3 mph - N/A   Clear
5:58 AM 69.3 °F - 69.3 °F 100% 30.01 in 1.2 mi SSE 4.6 mph - N/A   Clear
6:03 AM 68.0 °F - 68.0 °F 100% 30.00 in 2.0 mi SSE 4.6 mph - N/A   Clear
6:08 AM 68.0 °F - 68.0 °F 100% 30.00 in 5.0 mi SSE 4.6 mph - N/A   Clear
6:58 AM 69.6 °F - 69.6 °F 100% 30.02 in 9.0 mi SSE 3.5 mph - N/A   Clear
7:58 AM 71.4 °F - 71.1 °F 99% 30.02 in 10.0 mi SSE 5.8 mph - N/A   Clear
8:58 AM 76.1 °F - 72.7 °F 89% 30.03 in 10.0 mi South 10.4 mph - N/A   Clear
9:38 AM 78.8 °F - 71.6 °F 78% 30.03 in 10.0 mi South 12.7 mph - N/A   Mostly Cloudy
9:58 AM 79.9 °F - 71.8 °F 76% 30.04 in 10.0 mi South 10.4 mph 18.4 mph N/A   Mostly Cloudy
10:13 AM 78.8 °F - 71.6 °F 78% 30.04 in 10.0 mi South 11.5 mph - N/A   Scattered Clouds
10:58 AM 80.8 °F 84.7 °F 71.2 °F 73% 30.04 in 10.0 mi South 9.2 mph 18.4 mph N/A   Partly Cloudy
11:58 AM 81.1 °F 85.0 °F 71.1 °F 71% 30.03 in 10.0 mi South 16.1 mph 20.7 mph N/A   Partly Cloudy
12:58 PM 81.9 °F 85.8 °F 70.3 °F 68% 30.01 in 10.0 mi South 12.7 mph - N/A   Scattered Clouds
1:58 PM 81.9 °F 85.8 °F 70.3 °F 68% 29.98 in 10.0 mi South 15.0 mph 20.7 mph N/A   Partly Cloudy
2:23 PM 82.4 °F 86.3 °F 69.8 °F 66% 29.96 in 10.0 mi South 12.7 mph 20.7 mph N/A   Mostly Cloudy
2:33 PM 80.6 °F 83.9 °F 69.8 °F 70% 29.96 in 10.0 mi South 11.5 mph - N/A   Mostly Cloudy
2:38 PM 80.6 °F 83.9 °F 69.8 °F 70% 29.96 in 10.0 mi South 15.0 mph - N/A   Mostly Cloudy
2:58 PM 81.7 °F 85.4 °F 70.3 °F 68% 29.97 in 10.0 mi South 13.8 mph - N/A   Mostly Cloudy
3:08 PM 80.6 °F 83.9 °F 69.8 °F 70% 29.95 in 10.0 mi South 15.0 mph 21.9 mph N/A   Mostly Cloudy
3:18 PM 80.6 °F 83.9 °F 69.8 °F 70% 29.95 in 10.0 mi SSW 13.8 mph - N/A   Scattered Clouds
3:58 PM 80.6 °F 84.1 °F 70.3 °F 71% 29.96 in 10.0 mi SSW 15.0 mph - N/A   Partly Cloudy
4:58 PM 80.1 °F 83.4 °F 70.9 °F 73% 29.96 in 10.0 mi South 13.8 mph - N/A   Clear
5:55 PM 77.0 °F - 71.6 °F 83% 29.95 in 10.0 mi South 11.5 mph - N/A   Partly Cloudy
5:58 PM 77.5 °F - 71.4 °F 81% 29.96 in 10.0 mi South 10.4 mph - N/A   Scattered Clouds
6:58 PM 73.8 °F - 70.5 °F 90% 29.97 in 10.0 mi South 5.8 mph - N/A   Clear
7:58 PM 71.6 °F - 70.0 °F 95% 29.98 in 10.0 mi South 3.5 mph - N/A   Clear
8:58 PM 70.2 °F - 69.1 °F 96% 29.99 in 9.0 mi Calm Calm - N/A   Clear
9:03 PM 69.8 °F - 69.8 °F 100% 29.98 in 10.0 mi Calm Calm - N/A   Clear
9:08 PM 69.8 °F - 69.8 °F 100% 29.99 in 9.0 mi Calm Calm - N/A   Clear
9:13 PM 69.8 °F - 69.8 °F 100% 29.99 in 8.0 mi Calm Calm - N/A   Clear
9:38 PM 69.8 °F - 69.8 °F 100% 29.99 in 2.5 mi Calm Calm - N/A   Clear
9:43 PM 69.8 °F - 69.8 °F 100% 29.99 in 1.5 mi Calm Calm - N/A   Clear
9:48 PM 69.8 °F - 69.8 °F 100% 30.00 in 2.0 mi Calm Calm - N/A   Clear
9:53 PM 69.8 °F - 69.8 °F 100% 30.00 in 7.0 mi Calm Calm - N/A   Clear
9:58 PM 69.8 °F - 69.6 °F 99% 30.01 in 10.0 mi Calm Calm - N/A   Clear
10:23 PM 69.8 °F - 69.8 °F 100% 30.00 in 7.0 mi South 1.2 mph - N/A   Clear
10:28 PM 69.8 °F - 69.8 °F 100% 30.00 in 3.0 mi Calm Calm - N/A   Clear
10:33 PM 69.8 °F - 69.8 °F 100% 30.00 in 1.2 mi Calm Calm - N/A   Clear
10:38 PM 69.8 °F - 68.0 °F 94% 30.00 in 0.8 mi Calm Calm - N/A   Clear
10:49 PM 68.0 °F - 68.0 °F 100% 30.00 in 3.0 mi Calm Calm - N/A   Clear
10:53 PM 69.8 °F - 68.0 °F 94% 30.01 in 3.0 mi Calm Calm - N/A   Clear
10:58 PM 68.7 °F - 68.4 °F 99% 30.01 in 3.0 mi Calm Calm - N/A   Clear